Year,Month,Day,Hour,Minute,Value (Times are PST for windgust in km/hr)
2010,05,03,00,00,9.60
2010,05,03,00,01,11.30
2010,05,03,00,02,8.10
2010,05,03,00,03,11.30
2010,05,03,00,04,17.70
2010,05,03,00,05,8.10
2010,05,03,00,06,14.50
2010,05,03,00,07,8.10
2010,05,03,00,08,8.10
2010,05,03,00,09,9.60
2010,05,03,00,10,8.10
2010,05,03,00,11,19.30
2010,05,03,00,12,11.30
2010,05,03,00,13,8.10
2010,05,03,00,14,17.70
2010,05,03,00,15,14.50
2010,05,03,00,16,14.50
2010,05,03,00,17,11.30
2010,05,03,00,18,8.10
2010,05,03,00,19,6.40
2010,05,03,00,20,11.30
2010,05,03,00,21,8.10
2010,05,03,00,22,17.70
2010,05,03,00,23,22.50
2010,05,03,00,24,9.60
2010,05,03,00,25,8.10
2010,05,03,00,26,8.10
2010,05,03,00,27,8.10
2010,05,03,00,28,8.10
2010,05,03,00,29,17.70
2010,05,03,00,30,12.90
2010,05,03,00,31,9.60
2010,05,03,00,32,6.40
2010,05,03,00,33,11.30
2010,05,03,00,34,8.10
2010,05,03,00,35,8.10
2010,05,03,00,36,8.10
2010,05,03,00,37,8.10
2010,05,03,00,38,9.60
2010,05,03,00,39,8.10
2010,05,03,00,40,4.80
2010,05,03,00,41,4.80
2010,05,03,00,42,3.20
2010,05,03,00,43,4.80
2010,05,03,00,44,3.20
2010,05,03,00,45,4.80
2010,05,03,00,46,3.20
2010,05,03,00,47,4.80
2010,05,03,00,48,4.80
2010,05,03,00,49,3.20
2010,05,03,00,50,4.80
2010,05,03,00,51,3.20
2010,05,03,00,52,4.80
2010,05,03,00,53,3.20
2010,05,03,00,54,3.20
2010,05,03,00,56,3.20
2010,05,03,00,58,3.20
2010,05,03,00,59,4.80
2010,05,03,01,00,9.60
2010,05,03,01,01,11.30
2010,05,03,01,02,8.10
2010,05,03,01,03,6.40
2010,05,03,01,04,6.40
2010,05,03,01,05,4.80
2010,05,03,01,06,1.60
2010,05,03,01,07,6.40
2010,05,03,01,08,3.20
2010,05,03,01,09,1.60
2010,05,03,01,11,3.20
2010,05,03,01,19,3.20
2010,05,03,01,20,3.20
2010,05,03,01,21,4.80
2010,05,03,01,22,3.20
2010,05,03,01,24,3.20
2010,05,03,01,25,4.80
2010,05,03,01,26,3.20
2010,05,03,01,27,3.20
2010,05,03,01,28,3.20
2010,05,03,01,29,1.60
2010,05,03,01,30,3.20
2010,05,03,01,31,3.20
2010,05,03,01,33,1.60
2010,05,03,01,36,1.60
2010,05,03,01,38,3.20
2010,05,03,01,39,4.80
2010,05,03,01,40,4.80
2010,05,03,01,41,3.20
2010,05,03,01,42,3.20
2010,05,03,01,43,6.40
2010,05,03,01,44,4.80
2010,05,03,01,45,1.60
2010,05,03,01,49,4.80
2010,05,03,01,50,4.80
2010,05,03,01,51,3.20
2010,05,03,01,52,1.60
2010,05,03,01,55,4.80
2010,05,03,01,56,4.80
2010,05,03,01,57,4.80
2010,05,03,01,58,6.40
2010,05,03,01,59,8.10
2010,05,03,02,00,4.80
2010,05,03,02,01,4.80
2010,05,03,02,02,9.60
2010,05,03,02,03,6.40
2010,05,03,02,04,9.60
2010,05,03,02,05,9.60
2010,05,03,02,06,9.60
2010,05,03,02,07,8.10
2010,05,03,02,08,4.80
2010,05,03,02,09,6.40
2010,05,03,02,10,11.30
2010,05,03,02,11,11.30
2010,05,03,02,12,16.10
2010,05,03,02,13,14.50
2010,05,03,02,14,17.70
2010,05,03,02,15,14.50
2010,05,03,02,16,11.30
2010,05,03,02,17,11.30
2010,05,03,02,18,11.30
2010,05,03,02,19,11.30
2010,05,03,02,20,14.50
2010,05,03,02,21,16.10
2010,05,03,02,22,9.60
2010,05,03,02,23,14.50
2010,05,03,02,24,14.50
2010,05,03,02,25,9.60
2010,05,03,02,26,17.70
2010,05,03,02,27,16.10
2010,05,03,02,28,14.50
2010,05,03,02,29,14.50
2010,05,03,02,30,9.60
2010,05,03,02,31,14.50
2010,05,03,02,32,19.30
2010,05,03,02,33,14.50
2010,05,03,02,34,17.70
2010,05,03,02,35,16.10
2010,05,03,02,36,16.10
2010,05,03,02,37,19.30
2010,05,03,02,38,19.30
2010,05,03,02,39,17.70
2010,05,03,02,40,16.10
2010,05,03,02,41,16.10
2010,05,03,02,42,17.70
2010,05,03,02,43,9.60
2010,05,03,02,44,8.10
2010,05,03,02,45,6.40
2010,05,03,02,46,9.60
2010,05,03,02,47,11.30
2010,05,03,02,48,6.40
2010,05,03,02,49,9.60
2010,05,03,02,50,12.90
2010,05,03,02,51,16.10
2010,05,03,02,52,16.10
2010,05,03,02,53,20.90
2010,05,03,02,54,20.90
2010,05,03,02,55,17.70
2010,05,03,02,56,17.70
2010,05,03,02,57,14.50
2010,05,03,02,58,16.10
2010,05,03,02,59,16.10
2010,05,03,03,00,25.70
2010,05,03,03,01,24.20
2010,05,03,03,02,25.70
2010,05,03,03,03,20.90
2010,05,03,03,04,25.70
2010,05,03,03,05,19.30
2010,05,03,03,06,19.30
2010,05,03,03,07,27.40
2010,05,03,03,08,25.70
2010,05,03,03,09,20.90
2010,05,03,03,10,20.90
2010,05,03,03,11,25.70
2010,05,03,03,12,37.00
2010,05,03,03,13,25.70
2010,05,03,03,14,20.90
2010,05,03,03,15,32.20
2010,05,03,03,16,24.20
2010,05,03,03,17,19.30
2010,05,03,03,18,25.70
2010,05,03,03,19,25.70
2010,05,03,03,20,20.90
2010,05,03,03,21,30.60
2010,05,03,03,22,22.50
2010,05,03,03,23,35.40
2010,05,03,03,24,32.20
2010,05,03,03,25,45.10
2010,05,03,03,26,43.50
2010,05,03,03,27,43.50
2010,05,03,03,28,53.10
2010,05,03,03,29,38.60
2010,05,03,03,30,40.20
2010,05,03,03,31,46.70
2010,05,03,03,32,53.10
2010,05,03,03,33,48.30
2010,05,03,03,34,45.10
2010,05,03,03,35,56.30
2010,05,03,03,36,49.90
2010,05,03,03,37,41.80
2010,05,03,03,38,41.80
2010,05,03,03,39,61.20
2010,05,03,03,40,45.10
2010,05,03,03,41,48.30
2010,05,03,03,42,46.70
2010,05,03,03,43,48.30
2010,05,03,03,44,53.10
2010,05,03,03,45,53.10
2010,05,03,03,46,37.00
2010,05,03,03,47,51.50
2010,05,03,03,48,51.50
2010,05,03,03,49,49.90
2010,05,03,03,50,46.70
2010,05,03,03,51,51.50
2010,05,03,03,52,57.90
2010,05,03,03,53,53.10
2010,05,03,03,54,53.10
2010,05,03,03,55,46.70
2010,05,03,03,56,56.30
2010,05,03,03,57,48.30
2010,05,03,03,58,33.80
2010,05,03,03,59,40.20
2010,05,03,04,00,53.10
2010,05,03,04,01,49.90
2010,05,03,04,02,46.70
2010,05,03,04,03,35.40
2010,05,03,04,04,53.10
2010,05,03,04,05,45.10
2010,05,03,04,06,43.50
2010,05,03,04,07,56.30
2010,05,03,04,08,56.30
2010,05,03,04,09,46.70
2010,05,03,04,10,61.20
2010,05,03,04,11,61.20
2010,05,03,04,12,56.30
2010,05,03,04,13,41.80
2010,05,03,04,14,46.70
2010,05,03,04,15,51.50
2010,05,03,04,16,43.50
2010,05,03,04,17,45.10
2010,05,03,04,18,49.90
2010,05,03,04,19,53.10
2010,05,03,04,20,49.90
2010,05,03,04,21,51.50
2010,05,03,04,22,41.80
2010,05,03,04,23,41.80
2010,05,03,04,24,41.80
2010,05,03,04,25,54.70
2010,05,03,04,26,41.80
2010,05,03,04,27,37.00
2010,05,03,04,28,37.00
2010,05,03,04,29,43.50
2010,05,03,04,30,51.50
2010,05,03,04,31,45.10
2010,05,03,04,32,51.50
2010,05,03,04,33,45.10
2010,05,03,04,34,33.80
2010,05,03,04,35,49.90
2010,05,03,04,36,41.80
2010,05,03,04,37,33.80
2010,05,03,04,38,64.40
2010,05,03,04,39,48.30
2010,05,03,04,40,53.10
2010,05,03,04,41,35.40
2010,05,03,04,42,43.50
2010,05,03,04,43,30.60
2010,05,03,04,44,41.80
2010,05,03,04,45,37.00
2010,05,03,04,46,53.10
2010,05,03,04,47,56.30
2010,05,03,04,48,37.00
2010,05,03,04,49,40.20
2010,05,03,04,50,25.70
2010,05,03,04,51,30.60
2010,05,03,04,52,37.00
2010,05,03,04,53,24.20
2010,05,03,04,54,24.20
2010,05,03,04,55,46.70
2010,05,03,04,56,29.00
2010,05,03,04,57,20.90
2010,05,03,04,58,19.30
2010,05,03,04,59,14.50
2010,05,03,05,00,11.30
2010,05,03,05,01,30.60
2010,05,03,05,02,14.50
2010,05,03,05,03,20.90
2010,05,03,05,04,22.50
2010,05,03,05,05,46.70
2010,05,03,05,06,22.50
2010,05,03,05,07,16.10
2010,05,03,05,08,24.20
2010,05,03,05,09,24.20
2010,05,03,05,10,19.30
2010,05,03,05,11,27.40
2010,05,03,05,12,41.80
2010,05,03,05,13,25.70
2010,05,03,05,14,11.30
2010,05,03,05,15,22.50
2010,05,03,05,16,19.30
2010,05,03,05,17,20.90
2010,05,03,05,18,19.30
2010,05,03,05,19,14.50
2010,05,03,05,20,9.60
2010,05,03,05,21,6.40
2010,05,03,05,22,9.60
2010,05,03,05,23,14.50
2010,05,03,05,24,22.50
2010,05,03,05,25,9.60
2010,05,03,05,26,11.30
2010,05,03,05,27,8.10
2010,05,03,05,28,19.30
2010,05,03,05,29,17.70
2010,05,03,05,30,8.10
2010,05,03,05,31,4.80
2010,05,03,05,32,4.80
2010,05,03,05,33,9.60
2010,05,03,05,34,8.10
2010,05,03,05,35,11.30
2010,05,03,05,36,1.60
2010,05,03,05,37,8.10
2010,05,03,05,38,14.50
2010,05,03,05,39,11.30
2010,05,03,05,40,8.10
2010,05,03,05,41,9.60
2010,05,03,05,42,11.30
2010,05,03,05,43,11.30
2010,05,03,05,44,9.60
2010,05,03,05,45,4.80
2010,05,03,05,46,6.40
2010,05,03,05,47,4.80
2010,05,03,05,48,6.40
2010,05,03,05,49,8.10
2010,05,03,05,50,6.40
2010,05,03,05,52,4.80
2010,05,03,05,53,4.80
2010,05,03,05,55,3.20
2010,05,03,05,56,3.20
2010,05,03,05,57,1.60
2010,05,03,05,58,3.20
2010,05,03,05,59,3.20
2010,05,03,06,00,3.20
2010,05,03,06,03,11.30
2010,05,03,06,04,8.10
2010,05,03,06,05,3.20
2010,05,03,06,06,3.20
2010,05,03,06,07,8.10
2010,05,03,06,08,4.80
2010,05,03,06,09,4.80
2010,05,03,06,10,3.20
2010,05,03,06,11,1.60
2010,05,03,06,12,6.40
2010,05,03,06,13,9.60
2010,05,03,06,14,14.50
2010,05,03,06,15,11.30
2010,05,03,06,16,8.10
2010,05,03,06,17,8.10
2010,05,03,06,18,4.80
2010,05,03,06,19,4.80
2010,05,03,06,20,4.80
2010,05,03,06,21,3.20
2010,05,03,06,23,4.80
2010,05,03,06,26,1.60
2010,05,03,06,27,1.60
2010,05,03,06,32,1.60
2010,05,03,06,33,1.60
2010,05,03,06,34,3.20
2010,05,03,06,35,4.80
2010,05,03,06,36,4.80
2010,05,03,06,37,4.80
2010,05,03,06,38,6.40
2010,05,03,06,39,4.80
2010,05,03,06,40,4.80
2010,05,03,06,41,3.20
2010,05,03,06,45,6.40
2010,05,03,06,46,4.80
2010,05,03,06,47,1.60
2010,05,03,06,58,1.60
2010,05,03,06,59,4.80
2010,05,03,07,00,4.80
2010,05,03,07,01,3.20
2010,05,03,07,02,9.60
2010,05,03,07,03,8.10
2010,05,03,07,04,6.40
2010,05,03,07,05,8.10
2010,05,03,07,06,1.60
2010,05,03,07,07,6.40
2010,05,03,07,08,8.10
2010,05,03,07,09,8.10
2010,05,03,07,10,6.40
2010,05,03,07,11,4.80
2010,05,03,07,12,1.60
2010,05,03,07,13,16.10
2010,05,03,07,14,9.60
2010,05,03,07,15,4.80
2010,05,03,07,16,8.10
2010,05,03,07,17,6.40
2010,05,03,07,18,3.20
2010,05,03,07,19,3.20
2010,05,03,07,20,3.20
2010,05,03,07,21,1.60
2010,05,03,07,22,4.80
2010,05,03,07,23,4.80
2010,05,03,07,24,8.10
2010,05,03,07,25,3.20
2010,05,03,07,26,1.60
2010,05,03,07,28,3.20
2010,05,03,07,29,6.40
2010,05,03,07,30,6.40
2010,05,03,07,31,6.40
2010,05,03,07,32,6.40
2010,05,03,07,33,1.60
2010,05,03,07,34,3.20
2010,05,03,07,35,1.60
2010,05,03,07,36,3.20
2010,05,03,07,37,6.40
2010,05,03,07,38,8.10
2010,05,03,07,39,4.80
2010,05,03,07,40,8.10
2010,05,03,07,41,4.80
2010,05,03,07,42,6.40
2010,05,03,07,43,3.20
2010,05,03,07,44,1.60
2010,05,03,07,45,1.60
2010,05,03,07,46,6.40
2010,05,03,07,47,4.80
2010,05,03,07,48,4.80
2010,05,03,07,49,6.40
2010,05,03,07,50,4.80
2010,05,03,07,51,4.80
2010,05,03,07,53,1.60
2010,05,03,07,55,4.80
2010,05,03,07,56,4.80
2010,05,03,07,57,4.80
2010,05,03,07,58,1.60
2010,05,03,08,00,1.60
2010,05,03,08,01,6.40
2010,05,03,08,02,4.80
2010,05,03,08,03,4.80
2010,05,03,08,04,4.80
2010,05,03,08,05,1.60
2010,05,03,08,06,4.80
2010,05,03,08,07,4.80
2010,05,03,08,08,1.60
2010,05,03,08,09,3.20
2010,05,03,08,10,1.60
2010,05,03,08,11,6.40
2010,05,03,08,12,6.40
2010,05,03,08,13,16.10
2010,05,03,08,14,11.30
2010,05,03,08,15,16.10
2010,05,03,08,16,14.50
2010,05,03,08,17,11.30
2010,05,03,08,18,9.60
2010,05,03,08,19,11.30
2010,05,03,08,20,8.10
2010,05,03,08,21,8.10
2010,05,03,08,22,8.10
2010,05,03,08,23,9.60
2010,05,03,08,24,8.10
2010,05,03,08,25,9.60
2010,05,03,08,26,9.60
2010,05,03,08,27,11.30
2010,05,03,08,28,8.10
2010,05,03,08,29,9.60
2010,05,03,08,30,16.10
2010,05,03,08,31,9.60
2010,05,03,08,32,12.90
2010,05,03,08,33,12.90
2010,05,03,08,34,14.50
2010,05,03,08,35,17.70
2010,05,03,08,36,8.10
2010,05,03,08,37,16.10
2010,05,03,08,38,16.10
2010,05,03,08,39,17.70
2010,05,03,08,40,32.20
2010,05,03,08,41,14.50
2010,05,03,08,42,20.90
2010,05,03,08,43,9.60
2010,05,03,08,44,17.70
2010,05,03,08,45,16.10
2010,05,03,08,46,11.30
2010,05,03,08,47,24.20
2010,05,03,08,48,20.90
2010,05,03,08,49,24.20
2010,05,03,08,50,17.70
2010,05,03,08,51,24.20
2010,05,03,08,52,20.90
2010,05,03,08,53,19.30
2010,05,03,08,54,20.90
2010,05,03,08,55,22.50
2010,05,03,08,56,22.50
2010,05,03,08,57,16.10
2010,05,03,08,58,16.10
2010,05,03,08,59,29.00
2010,05,03,09,00,25.70
2010,05,03,09,01,19.30
2010,05,03,09,02,16.10
2010,05,03,09,03,20.90
2010,05,03,09,04,22.50
2010,05,03,09,05,12.90
2010,05,03,09,06,20.90
2010,05,03,09,07,25.70
2010,05,03,09,08,16.10
2010,05,03,09,09,19.30
2010,05,03,09,10,8.10
2010,05,03,09,11,37.00
2010,05,03,09,12,20.90
2010,05,03,09,13,16.10
2010,05,03,09,14,22.50
2010,05,03,09,15,19.30
2010,05,03,09,16,20.90
2010,05,03,09,17,24.20
2010,05,03,09,18,32.20
2010,05,03,09,19,19.30
2010,05,03,09,20,22.50
2010,05,03,09,21,14.50
2010,05,03,09,22,8.10
2010,05,03,09,23,11.30
2010,05,03,09,24,19.30
2010,05,03,09,25,19.30
2010,05,03,09,26,20.90
2010,05,03,09,27,30.60
2010,05,03,09,28,43.50
2010,05,03,09,29,27.40
2010,05,03,09,30,22.50
2010,05,03,09,31,20.90
2010,05,03,09,32,19.30
2010,05,03,09,33,19.30
2010,05,03,09,34,24.20
2010,05,03,09,35,6.40
2010,05,03,09,36,24.20
2010,05,03,09,37,27.40
2010,05,03,09,38,17.70
2010,05,03,09,39,11.30
2010,05,03,09,40,25.70
2010,05,03,09,41,37.00
2010,05,03,09,42,20.90
2010,05,03,09,43,25.70
2010,05,03,09,44,17.70
2010,05,03,09,45,16.10
2010,05,03,09,46,24.20
2010,05,03,09,47,32.20
2010,05,03,09,48,20.90
2010,05,03,09,49,12.90
2010,05,03,09,50,27.40
2010,05,03,09,51,24.20
2010,05,03,09,52,19.30
2010,05,03,09,53,16.10
2010,05,03,09,54,25.70
2010,05,03,09,55,27.40
2010,05,03,09,56,29.00
2010,05,03,09,57,16.10
2010,05,03,09,58,20.90
2010,05,03,09,59,20.90
2010,05,03,10,00,20.90
2010,05,03,10,01,30.60
2010,05,03,10,02,35.40
2010,05,03,10,03,29.00
2010,05,03,10,04,25.70
2010,05,03,10,05,33.80
2010,05,03,10,06,22.50
2010,05,03,10,07,25.70
2010,05,03,10,08,30.60
2010,05,03,10,09,25.70
2010,05,03,10,10,17.70
2010,05,03,10,11,19.30
2010,05,03,10,12,16.10
2010,05,03,10,13,17.70
2010,05,03,10,14,27.40
2010,05,03,10,15,12.90
2010,05,03,10,16,8.10
2010,05,03,10,17,4.80
2010,05,03,10,18,16.10
2010,05,03,10,19,24.20
2010,05,03,10,20,22.50
2010,05,03,10,21,22.50
2010,05,03,10,22,20.90
2010,05,03,10,23,11.30
2010,05,03,10,24,22.50
2010,05,03,10,25,11.30
2010,05,03,10,26,25.70
2010,05,03,10,27,17.70
2010,05,03,10,28,9.60
2010,05,03,10,29,8.10
2010,05,03,10,30,4.80
2010,05,03,10,31,6.40
2010,05,03,10,32,25.70
2010,05,03,10,33,29.00
2010,05,03,10,34,24.20
2010,05,03,10,35,14.50
2010,05,03,10,36,25.70
2010,05,03,10,37,25.70
2010,05,03,10,38,27.40
2010,05,03,10,39,20.90
2010,05,03,10,40,20.90
2010,05,03,10,41,14.50
2010,05,03,10,42,16.10
2010,05,03,10,43,11.30
2010,05,03,10,44,16.10
2010,05,03,10,45,9.60
2010,05,03,10,46,14.50
2010,05,03,10,47,16.10
2010,05,03,10,48,16.10
2010,05,03,10,49,11.30
2010,05,03,10,50,9.60
2010,05,03,10,51,11.30
2010,05,03,10,52,16.10
2010,05,03,10,53,32.20
2010,05,03,10,54,27.40
2010,05,03,10,55,11.30
2010,05,03,10,56,19.30
2010,05,03,10,57,17.70
2010,05,03,10,58,16.10
2010,05,03,10,59,9.60
2010,05,03,11,00,8.10
2010,05,03,11,01,6.40
2010,05,03,11,02,9.60
2010,05,03,11,03,4.80
2010,05,03,11,04,9.60
2010,05,03,11,05,11.30
2010,05,03,11,06,24.20
2010,05,03,11,07,14.50
2010,05,03,11,08,16.10
2010,05,03,11,09,11.30
2010,05,03,11,10,17.70
2010,05,03,11,11,8.10
2010,05,03,11,12,16.10
2010,05,03,11,13,6.40
2010,05,03,11,14,11.30
2010,05,03,11,15,11.30
2010,05,03,11,16,6.40
2010,05,03,11,17,9.60
2010,05,03,11,18,9.60
2010,05,03,11,19,19.30
2010,05,03,11,20,9.60
2010,05,03,11,21,17.70
2010,05,03,11,22,17.70
2010,05,03,11,23,22.50
2010,05,03,11,24,19.30
2010,05,03,11,25,19.30
2010,05,03,11,26,19.30
2010,05,03,11,27,11.30
2010,05,03,11,28,9.60
2010,05,03,11,29,14.50
2010,05,03,11,30,12.90
2010,05,03,11,31,16.10
2010,05,03,11,32,8.10
2010,05,03,11,33,9.60
2010,05,03,11,34,11.30
2010,05,03,11,35,11.30
2010,05,03,11,36,11.30
2010,05,03,11,37,8.10
2010,05,03,11,38,4.80
2010,05,03,11,39,4.80
2010,05,03,11,40,17.70
2010,05,03,11,41,11.30
2010,05,03,11,42,8.10
2010,05,03,11,43,14.50
2010,05,03,11,44,11.30
2010,05,03,11,45,11.30
2010,05,03,11,46,16.10
2010,05,03,11,47,9.60
2010,05,03,11,48,19.30
2010,05,03,11,49,11.30
2010,05,03,11,50,4.80
2010,05,03,11,51,14.50
2010,05,03,11,52,19.30
2010,05,03,11,53,11.30
2010,05,03,11,54,4.80
2010,05,03,11,55,1.60
2010,05,03,11,56,12.90
2010,05,03,11,57,11.30
2010,05,03,11,58,20.90
2010,05,03,11,59,24.20
2010,05,03,12,00,16.10
2010,05,03,12,01,11.30
2010,05,03,12,02,20.90
2010,05,03,12,03,19.30
2010,05,03,12,04,11.30
2010,05,03,12,05,27.40
2010,05,03,12,06,17.70
2010,05,03,12,07,9.60
2010,05,03,12,08,8.10
2010,05,03,12,09,4.80
2010,05,03,12,10,16.10
2010,05,03,12,11,19.30
2010,05,03,12,12,16.10
2010,05,03,12,13,14.50
2010,05,03,12,14,20.90
2010,05,03,12,15,20.90
2010,05,03,12,16,20.90
2010,05,03,12,17,19.30
2010,05,03,12,18,16.10
2010,05,03,12,19,20.90
2010,05,03,12,20,22.50
2010,05,03,12,21,4.80
2010,05,03,12,22,17.70
2010,05,03,12,23,8.10
2010,05,03,12,24,6.40
2010,05,03,12,25,8.10
2010,05,03,12,26,11.30
2010,05,03,12,27,11.30
2010,05,03,12,28,6.40
2010,05,03,12,29,8.10
2010,05,03,12,30,14.50
2010,05,03,12,31,6.40
2010,05,03,12,32,16.10
2010,05,03,12,33,8.10
2010,05,03,12,34,17.70
2010,05,03,12,35,14.50
2010,05,03,12,36,16.10
2010,05,03,12,37,16.10
2010,05,03,12,38,6.40
2010,05,03,12,39,17.70
2010,05,03,12,40,17.70
2010,05,03,12,41,9.60
2010,05,03,12,42,6.40
2010,05,03,12,43,4.80
2010,05,03,12,44,9.60
2010,05,03,12,45,11.30
2010,05,03,12,46,16.10
2010,05,03,12,47,6.40
2010,05,03,12,48,9.60
2010,05,03,12,49,6.40
2010,05,03,12,50,16.10
2010,05,03,12,51,9.60
2010,05,03,12,52,16.10
2010,05,03,12,53,17.70
2010,05,03,12,54,16.10
2010,05,03,12,55,19.30
2010,05,03,12,56,19.30
2010,05,03,12,57,11.30
2010,05,03,12,58,9.60
2010,05,03,12,59,6.40
2010,05,03,13,00,8.10
2010,05,03,13,01,8.10
2010,05,03,13,02,4.80
2010,05,03,13,03,6.40
2010,05,03,13,04,11.30
2010,05,03,13,05,16.10
2010,05,03,13,06,11.30
2010,05,03,13,07,9.60
2010,05,03,13,08,17.70
2010,05,03,13,09,8.10
2010,05,03,13,10,6.40
2010,05,03,13,11,11.30
2010,05,03,13,12,4.80
2010,05,03,13,13,6.40
2010,05,03,13,14,19.30
2010,05,03,13,15,16.10
2010,05,03,13,16,14.50
2010,05,03,13,17,16.10
2010,05,03,13,18,9.60
2010,05,03,13,19,24.20
2010,05,03,13,20,11.30
2010,05,03,13,21,11.30
2010,05,03,13,22,14.50
2010,05,03,13,23,16.10
2010,05,03,13,24,25.70
2010,05,03,13,25,20.90
2010,05,03,13,26,14.50
2010,05,03,13,27,12.90
2010,05,03,13,28,6.40
2010,05,03,13,29,6.40
2010,05,03,13,30,14.50
2010,05,03,13,31,19.30
2010,05,03,13,32,6.40
2010,05,03,13,33,11.30
2010,05,03,13,34,16.10
2010,05,03,13,35,4.80
2010,05,03,13,36,6.40
2010,05,03,13,37,4.80
2010,05,03,13,38,6.40
2010,05,03,13,39,9.60
2010,05,03,13,40,8.10
2010,05,03,13,41,14.50
2010,05,03,13,42,6.40
2010,05,03,13,43,6.40
2010,05,03,13,44,8.10
2010,05,03,13,45,8.10
2010,05,03,13,46,4.80
2010,05,03,13,47,6.40
2010,05,03,13,48,3.20
2010,05,03,13,49,8.10
2010,05,03,13,50,16.10
2010,05,03,13,51,11.30
2010,05,03,13,52,11.30
2010,05,03,13,53,14.50
2010,05,03,13,54,14.50
2010,05,03,13,55,11.30
2010,05,03,13,56,17.70
2010,05,03,13,57,24.20
2010,05,03,13,58,22.50
2010,05,03,13,59,11.30
2010,05,03,14,00,4.80
2010,05,03,14,01,17.70
2010,05,03,14,02,16.10
2010,05,03,14,03,11.30
2010,05,03,14,04,9.60
2010,05,03,14,05,16.10
2010,05,03,14,06,9.60
2010,05,03,14,07,6.40
2010,05,03,14,08,12.90
2010,05,03,14,09,11.30
2010,05,03,14,10,9.60
2010,05,03,14,11,11.30
2010,05,03,14,12,11.30
2010,05,03,14,13,11.30
2010,05,03,14,14,16.10
2010,05,03,14,15,17.70
2010,05,03,14,16,17.70
2010,05,03,14,17,14.50
2010,05,03,14,18,11.30
2010,05,03,14,19,11.30
2010,05,03,14,20,9.60
2010,05,03,14,21,11.30
2010,05,03,14,22,12.90
2010,05,03,14,23,17.70
2010,05,03,14,24,12.90
2010,05,03,14,25,11.30
2010,05,03,14,26,12.90
2010,05,03,14,27,9.60
2010,05,03,14,28,12.90
2010,05,03,14,29,16.10
2010,05,03,14,30,14.50
2010,05,03,14,31,8.10
2010,05,03,14,32,14.50
2010,05,03,14,33,19.30
2010,05,03,14,34,17.70
2010,05,03,14,35,12.90
2010,05,03,14,36,17.70
2010,05,03,14,37,9.60
2010,05,03,14,38,8.10
2010,05,03,14,39,16.10
2010,05,03,14,40,8.10
2010,05,03,14,41,11.30
2010,05,03,14,42,14.50
2010,05,03,14,43,16.10
2010,05,03,14,44,14.50
2010,05,03,14,45,11.30
2010,05,03,14,46,9.60
2010,05,03,14,47,9.60
2010,05,03,14,48,8.10
2010,05,03,14,49,8.10
2010,05,03,14,50,9.60
2010,05,03,14,51,9.60
2010,05,03,14,52,16.10
2010,05,03,14,53,8.10
2010,05,03,14,54,9.60
2010,05,03,14,55,6.40
2010,05,03,14,56,9.60
2010,05,03,14,57,8.10
2010,05,03,14,58,6.40
2010,05,03,14,59,8.10
2010,05,03,15,00,11.30
2010,05,03,15,01,16.10
2010,05,03,15,02,8.10
2010,05,03,15,03,14.50
2010,05,03,15,04,16.10
2010,05,03,15,05,22.50
2010,05,03,15,06,19.30
2010,05,03,15,07,12.90
2010,05,03,15,08,8.10
2010,05,03,15,09,20.90
2010,05,03,15,10,11.30
2010,05,03,15,11,14.50
2010,05,03,15,12,16.10
2010,05,03,15,13,14.50
2010,05,03,15,14,17.70
2010,05,03,15,15,8.10
2010,05,03,15,16,9.60
2010,05,03,15,17,11.30
2010,05,03,15,18,6.40
2010,05,03,15,19,8.10
2010,05,03,15,20,9.60
2010,05,03,15,21,14.50
2010,05,03,15,22,14.50
2010,05,03,15,23,8.10
2010,05,03,15,24,11.30
2010,05,03,15,25,9.60
2010,05,03,15,26,9.60
2010,05,03,15,27,11.30
2010,05,03,15,28,11.30
2010,05,03,15,29,14.50
2010,05,03,15,30,14.50
2010,05,03,15,31,12.90
2010,05,03,15,32,11.30
2010,05,03,15,33,11.30
2010,05,03,15,34,8.10
2010,05,03,15,35,11.30
2010,05,03,15,36,11.30
2010,05,03,15,37,14.50
2010,05,03,15,38,11.30
2010,05,03,15,39,11.30
2010,05,03,15,40,14.50
2010,05,03,15,41,19.30
2010,05,03,15,42,22.50
2010,05,03,15,43,29.00
2010,05,03,15,44,25.70
2010,05,03,15,45,11.30
2010,05,03,15,46,16.10
2010,05,03,15,47,30.60
2010,05,03,15,48,20.90
2010,05,03,15,49,12.90
2010,05,03,15,50,9.60
2010,05,03,15,51,11.30
2010,05,03,15,52,14.50
2010,05,03,15,53,19.30
2010,05,03,15,54,14.50
2010,05,03,15,55,16.10
2010,05,03,15,56,14.50
2010,05,03,15,57,11.30
2010,05,03,15,58,8.10
2010,05,03,15,59,6.40
2010,05,03,16,00,1.60
2010,05,03,16,01,6.40
2010,05,03,16,02,8.10
2010,05,03,16,03,9.60
2010,05,03,16,04,14.50
2010,05,03,16,05,8.10
2010,05,03,16,06,12.90
2010,05,03,16,07,12.90
2010,05,03,16,08,16.10
2010,05,03,16,09,11.30
2010,05,03,16,10,9.60
2010,05,03,16,11,17.70
2010,05,03,16,12,12.90
2010,05,03,16,13,6.40
2010,05,03,16,14,6.40
2010,05,03,16,15,6.40
2010,05,03,16,16,9.60
2010,05,03,16,17,6.40
2010,05,03,16,18,8.10
2010,05,03,16,19,6.40
2010,05,03,16,20,6.40
2010,05,03,16,21,14.50
2010,05,03,16,22,9.60
2010,05,03,16,23,4.80
2010,05,03,16,24,16.10
2010,05,03,16,25,22.50
2010,05,03,16,26,25.70
2010,05,03,16,27,19.30
2010,05,03,16,28,17.70
2010,05,03,16,29,8.10
2010,05,03,16,30,6.40
2010,05,03,16,31,22.50
2010,05,03,16,32,20.90
2010,05,03,16,33,25.70
2010,05,03,16,34,9.60
2010,05,03,16,35,11.30
2010,05,03,16,36,9.60
2010,05,03,16,37,16.10
2010,05,03,16,38,9.60
2010,05,03,16,39,6.40
2010,05,03,16,40,11.30
2010,05,03,16,41,8.10
2010,05,03,16,42,6.40
2010,05,03,16,43,6.40
2010,05,03,16,44,9.60
2010,05,03,16,45,9.60
2010,05,03,16,46,8.10
2010,05,03,16,47,6.40
2010,05,03,16,48,4.80
2010,05,03,16,49,14.50
2010,05,03,16,50,6.40
2010,05,03,16,51,16.10
2010,05,03,16,52,16.10
2010,05,03,16,53,11.30
2010,05,03,16,54,12.90
2010,05,03,16,55,8.10
2010,05,03,16,56,17.70
2010,05,03,16,57,9.60
2010,05,03,16,58,6.40
2010,05,03,16,59,9.60
2010,05,03,17,00,11.30
2010,05,03,17,01,8.10
2010,05,03,17,02,9.60
2010,05,03,17,03,9.60
2010,05,03,17,04,9.60
2010,05,03,17,05,11.30
2010,05,03,17,06,14.50
2010,05,03,17,07,8.10
2010,05,03,17,08,11.30
2010,05,03,17,09,12.90
2010,05,03,17,10,11.30
2010,05,03,17,11,16.10
2010,05,03,17,12,17.70
2010,05,03,17,13,12.90
2010,05,03,17,14,12.90
2010,05,03,17,15,16.10
2010,05,03,17,16,11.30
2010,05,03,17,17,9.60
2010,05,03,17,18,11.30
2010,05,03,17,19,4.80
2010,05,03,17,20,4.80
2010,05,03,17,21,8.10
2010,05,03,17,22,9.60
2010,05,03,17,23,6.40
2010,05,03,17,24,6.40
2010,05,03,17,25,11.30
2010,05,03,17,26,11.30
2010,05,03,17,27,11.30
2010,05,03,17,28,9.60
2010,05,03,17,29,6.40
2010,05,03,17,30,8.10
2010,05,03,17,31,6.40
2010,05,03,17,32,6.40
2010,05,03,17,33,8.10
2010,05,03,17,34,6.40
2010,05,03,17,35,1.60
2010,05,03,17,36,8.10
2010,05,03,17,37,6.40
2010,05,03,17,38,14.50
2010,05,03,17,39,16.10
2010,05,03,17,40,11.30
2010,05,03,17,41,6.40
2010,05,03,17,42,1.60
2010,05,03,17,43,9.60
2010,05,03,17,44,8.10
2010,05,03,17,45,11.30
2010,05,03,17,46,9.60
2010,05,03,17,47,8.10
2010,05,03,17,48,9.60
2010,05,03,17,49,11.30
2010,05,03,17,50,11.30
2010,05,03,17,51,12.90
2010,05,03,17,52,9.60
2010,05,03,17,53,14.50
2010,05,03,17,54,9.60
2010,05,03,17,55,6.40
2010,05,03,17,56,11.30
2010,05,03,17,57,9.60
2010,05,03,17,58,19.30
2010,05,03,17,59,11.30
2010,05,03,18,00,16.10
2010,05,03,18,01,11.30
2010,05,03,18,02,3.20
2010,05,03,18,03,14.50
2010,05,03,18,04,6.40
2010,05,03,18,05,4.80
2010,05,03,18,06,17.70
2010,05,03,18,07,9.60
2010,05,03,18,08,14.50
2010,05,03,18,09,17.70
2010,05,03,18,10,9.60
2010,05,03,18,11,11.30
2010,05,03,18,12,4.80
2010,05,03,18,13,4.80
2010,05,03,18,14,6.40
2010,05,03,18,15,11.30
2010,05,03,18,16,11.30
2010,05,03,18,17,12.90
2010,05,03,18,18,22.50
2010,05,03,18,19,22.50
2010,05,03,18,20,14.50
2010,05,03,18,21,9.60
2010,05,03,18,22,4.80
2010,05,03,18,23,11.30
2010,05,03,18,24,14.50
2010,05,03,18,25,8.10
2010,05,03,18,26,16.10